Regional Weather Roundup
Issued by NWS

Home | Current Version | Previous Version | Graphics & Text | Print | Product List | Glossary On
Versions: 1 2 3 4 5 6 7 8 9 10 11 12 13 14 15 16 17 18 19 20 21 22 23 24 25 26 27 28 29 30 31 32 33 34 35 36 37 38 39 40 41 42 43 44 45 46 47 48 49 50
000
ASUS45 KTFX 040004
RWRMT
MONTANA HOURLY WEATHER ROUNDUP
NATIONAL WEATHER SERVICE GREAT FALLS MT
504 PM MST TUE MAR 3 2015

NOTE: "FAIR" INDICATES FEW OR NO CLOUDS BELOW 12000 FEET WITH NO
SIGNIFICANT WEATHER AND/OR OBSTRUCTIONS TO VISIBILITY.

* THESE STATIONS ARE NOT UNDER NWS QUALITY CONTROL. THEY DO NOT
   REPORT WEATHER SUCH AS PRECIPITATION OR FOG.

MTZ001>007-043-040100-
WEST OF THE DIVIDE
CITY           SKY/WX    TMP DP  RH WIND       PRES   REMARKS
KALISPELL      CLEAR     27   9  46 S12       30.07S WCI  16
MISSOULA       CLOUDY    27   7  42 N14       30.06S WCI  16
BUTTE          CLEAR     18   0  45 W10       29.89S WCI   6
MULLAN PASS    CLEAR     16   7  67 NW9       29.92S WCI   5
* ANACONDA     CLEAR     18   0  45 N10        N/A   WCI   6
* ESSEX        N/A       23  -1  35 SE4        N/A
* LINCOLN      N/A       23  -1  35 W6G16      N/A   WCI  16
* LOOKOUT PASS N/A       24   6  46 N5G11      N/A   WCI  18
* POLSON       N/A       26   9  48 S3         N/A
* RONAN APT    CLEAR     27   3  35 N/A        N/A
* SEELEY LAKE  N/A       23   1  38 SW5        N/A   WCI  16
* THOMP F APT  CLEAR     23  -2  33 NW8G24     N/A   WCI  14
$$

MTZ008-052>055-040100-
SOUTHWEST MONTANA
CITY           SKY/WX    TMP DP  RH WIND       PRES   REMARKS
BOZEMAN        PTCLDY    18  -2  41 CALM      29.98F
DILLON         CLEAR     21   5  50 CALM      29.88F
* W YELLOWSTON PTCLDY    19  -8  29 W3G10      N/A
* THREE FORKS  PTCLDY    19  -4  36 N/A        N/A
* BOULDER HILL N/A       17  -5  37 N4G10      N/A
* MONIDA PASS  N/A       19   3  49 NW16       N/A   WCI   4
* RAYNOLDS PAS N/A       12 -28  14 N8         N/A
* WHITEHALL    N/A       23   0  36 E5G10      N/A   WCI  16
* WISE RIVER   N/A       25  -1  32 W18G25     N/A   WCI  11
$$

MTZ009>010-012-014-046-048-049-054-040100-
EAST SLOPES AND CENTRAL MONTANA
CITY           SKY/WX    TMP DP  RH WIND       PRES   REMARKS
CUT BANK       CLEAR     18  -6  34 N18       30.02S WCI   2
GREAT FALLS    CLEAR     19   3  49 W10       30.02S WCI   8
HELENA         CLOUDY    23   3  42 E8        30.00R WCI  14
* DEARBORN     N/A       18   6  59 NE6        N/A   WCI  10
* EAST GLACIER N/A        5  -2  72 S4         N/A
* MONARCH      N/A       10  -9  41 NW17       N/A   WCI  -8
* PENDROY      N/A       13  -1  53 NW5        N/A   WCI   5
* ROGERS PASS  N/A       13   1  58 SE2        N/A
* SWEET GRASS  N/A       12  -1  56 VRB14G19    N/A   WCI  -4
$$

MTZ011-013-016-021-035-040-045-047-050-051-040100-
NORTH CENTRAL MONTANA
CITY           SKY/WX    TMP DP  RH WIND       PRES   REMARKS
HAVRE          CLEAR     18  -4  37 NW21G29   30.08R WCI   1
LEWISTOWN      CLEAR     12  -2  53 NW8       29.97F
* N BAR RANCH  CLEAR     10  -8  43 NW9G16    29.95R WCI  -3
* CHESTER      N/A       18 -10  28 NW15G24    N/A   WCI   4
* DENTON       N/A       16  -4  40 NW9G14     N/A   WCI   5
* GEYSER       N/A       14   0  53 W13G18     N/A
* JUDITH GAP   N/A        9  -4  55 NW12G19    N/A   WCI  -6
* LOMA         N/A       22  -2  34 W16        N/A   WCI   8
$$

MTZ017>020-022>027-061-062-040100-
NORTHEAST MONTANA
CITY           SKY/WX    TMP DP  RH WIND       PRES   REMARKS
GLASGOW        MOCLDY    18  -8  31 NW29G36   29.99F WCI  -1
JORDAN         CLEAR     18  -6  34 NW21G26   30.01F WCI   1
SIDNEY         FAIR      12  -6  44 W15G21    30.03F WCI  -4
WOLF POINT     CLEAR     18  -8  31 NW24G32   30.01F
* BEAVER HILL  N/A       11  -7  44 W26G32     N/A   WCI -10
* CIRCLE       N/A       16  -2  45 NW21       N/A   WCI  -1
* LINDSAY DVD  N/A       11  -5  48 W17G29     N/A   WCI  -6
* NAVAJO       N/A        7  -7  52 NW24G34    N/A   WCI -14
* SACO         N/A       16  -8  33 W23G33     N/A   WCI  -2
$$

MTZ028>042-056>058-040100-
SOUTHCENTRAL AND SOUTHEAST MONTANA
CITY           SKY/WX    TMP DP  RH WIND       PRES   REMARKS
BAKER          PTCLDY    12  -6  44 NW20G29   29.96F WCI  -6
BILLINGS       FAIR      18  -4  37 NW7       29.99S WCI   9
LIVINGSTON     PTCLDY    18   0  45 W15       29.93S WCI   4
MILES CITY     PTCLDY    18  -4  37 NW18      30.02F WCI   2
* LAUREL APT   CLEAR     19  -6  32 N/A        N/A
* ROUNDUP APT  CLEAR     16 -13  26 NW15       N/A   WCI   1
* ALZADA       N/A       11   1  64 W11G16     N/A   WCI  -3
* HYSHAM       N/A       16  -8  33 W9G17      N/A   WCI   5
* REED POINT   N/A       21   3  45 W19G26     N/A   WCI   6
* ROSCOE HILL  N/A        8  -8  47 SE4        N/A
$$

REGIONAL REPORTS...DAKOTAS
CITY           SKY/WX    TMP DP  RH WIND       PRES   REMARKS
WILLISTON      CLEAR      7  -4  60 NW13      30.01F WCI  -9
DICKINSON      FAIR      10  -6  48 W17G26    29.93S WCI  -8
BEACH          MOCLDY    10  -4  53 NW22G30   29.97S WCI -10
CROSBY         CLEAR      3  -8  60 W18G25    29.98F WCI -17
WATFORD CITY   CLEAR      7  -2  66 N14       29.98S WCI -10
BISMARCK       MOCLDY    10  -2  58 NW18G24   30.02R WCI  -8
GRAND FORKS    CLOUDY     7  -2  66 W21       29.94R WCI -13
FARGO          LGT SNOW   9  -2  61 NW28G35   29.96R WCI -13
BUFFALO SD     CLEAR     14  -6  40 NW22G31   29.88S WCI  -4
RAPID CITY     PTCLDY    14   1  56 N24G31    29.95R WCI  -5
$$

REGIONAL REPORTS...WYOMING/IDAHO/WASHINGTON
CITY           SKY/WX    TMP DP  RH WIND       PRES   REMARKS
GILLETTE       MOCLDY     9  -2  61 NW10      29.93S WCI  -5
SHERIDAN       CLEAR      9  -2  61 W9        29.98F WCI  -4
CODY           CLEAR     12   1  61 CALM      29.90F
YELLOWSTONE LA CLEAR     14  -6  40 W7        29.74S WCI   4
SALMON         CLEAR     36   5  27 CALM      29.92F
MULLAN PASS    CLEAR     16   7  67 NW9       29.92S WCI   5
SAND POINT     PTCLDY    36  12  37 CALM      30.10F
SPOKANE        FAIR      37  12  36 W9        30.10F WCI  30
$$

REGIONAL REPORTS...SASKATCHEWAN
CITY           SKY/WX    TMP DP  RH WIND       PRES   REMARKS
SWIFT CURRENT  SNOW       3   0  87 NW24G32   29.95R VSB 1/4  WCI -20

$$



USA.gov is the U.S. government's official web portal to all federal, state and local government web resources and services.